SCP
0 0 0 0 0 0 0 0 0 0 0 0 0 0 0 0 0 0 0 0 0 0 0 0 0 0 0 0 0 0 0 0 0 0 0 0 0 0 0 0 0 0 0
0 0 0 0 0 0 0 0 0 0 0 0 0 0 0 0 0 0 0 0 0 0 0 0 0 0 0 0 0 0 0 0 0 0 0 0 0 0 0 0 0 0 0
0 0 0 0 0 0 0 0 0 0 0 0 0 0 0 0 0 0 0 0 0 0 0 0 0 0 0 0 0 0 0 0 0 0 0 0 0 0 0 0 0 0 0
0 0 0 0 0 0 0 0 0 0 0 0 0 0 0 0 0 0 0 0 0 0 0 0 0 0 0 0 0 0 0 0 0 0 0 0 0 0 0 0 0 0 0
0 0 0 0 0 0 0 0 0 0 0 0 0 0 0 0 0 0 0 0 0 0 0 0 0 0 0 0 0 0 0 0 0 0 0 0 0 0 0 0 0 0 0
0 0 0 0 0 0 0 0 0 0 0 0 0 0 0 0 0 0 0 0 0 0 0 0 0 0 0 0 0 0 0 0 0 0 0 0 0 0 0 0 0 0 0
1 1 0 0 0 0 0 0 0 0 0 0 0 0 0 0 0 0 0 0 0 0 0 0 0 0 0 0 0 0 0 0 0 0 0 0 0 0 0 0 0 0 0
2 1 1 1 0 0 0 0 0 0 0 0 0 0 0 0 0 0 0 0 0 0 0 0 0 0 0 0 0 0 0 0 0 0 0 0 0 0 0 0 1 1 1
2 2 2 2 1 1 1 0 0 0 0 0 0 0 0 0 0 0 0 0 0 0 0 0 0 0 0 0 0 0 0 0 0 0 0 0 0 0 0 1 1 1 1
1 2 2 2 2 2 1 1 0 0 0 0 0 0 0 0 0 0 0 0 0 0 0 0 0 0 0 0 0 0 0 0 0 0 0 0 0 0 0 0 0 0 0
1 1 1 2 2 2 2 2 1 1 0 0 0 0 0 0 0 0 0 0 0 0 0 0 0 0 0 0 0 0 0 0 0 0 0 0 0 0 0 0 0 0 0
0 0 1 1 2 2 3 3 3 2 1 1 0 0 0 0 0 0 0 0 0 0 0 0 0 0 0 0 0 0 0 0 0 0 0 0 0 0 0 0 0 0 0
0 0 0 1 1 1 2 3 3 3 2 1 1 0 0 0 0 0 0 0 0 0 0 0 0 0 0 0 0 0 0 0 0 0 0 0 0 0 0 0 0 0 0
0 0 0 0 0 1 1 2 3 4 4 3 1 1 0 0 0 0 0 0 0 0 0 0 0 0 0 0 0 0 0 0 0 0 0 0 0 0 0 0 0 0 0
0 0 0 0 0 0 1 1 2 3 4 4 2 1 1 0 0 0 0 0 0 0 0 0 0 0 0 0 0 0 0 0 0 0 0 0 0 0 0 0 0 0 0
1 1 1 0 0 0 1 1 1 2 3 4 3 2 1 1 0 0 0 0 0 0 0 0 0 0 0 0 0 0 0 0 0 0 0 0 0 0 0 0 0 0 0
1 1 1 1 1 0 1 1 1 1 2 3 3 3 2 1 1 1 1 0 0 0 0 0 0 0 0 0 0 0 0 0 0 0 0 0 0 0 0 0 0 0 0
1 1 1 1 1 1 1 1 1 1 1 2 3 3 3 2 1 1 1 1 1 1 1 0 0 0 0 0 0 0 0 0 0 0 0 0 0 0 0 0 0 0 0
0 0 0 1 1 1 1 1 1 1 1 1 2 3 3 2 1 1 1 1 1 1 1 1 1 0 0 0 0 0 0 0 0 0 0 0 0 0 0 0 0 0 0
0 0 0 0 0 0 0 0 1 1 1 1 2 3 3 2 2 1 1 1 1 1 1 1 1 1 0 0 0 0 0 0 0 0 0 0 0 0 0 0 0 0 0
0 0 0 0 0 0 0 0 0 0 1 1 1 2 2 2 2 1 1 1 1 1 1 1 1 1 0 0 0 0 0 0 0 0 0 0 0 0 0 0 0 0 0
0 0 0 0 0 0 0 0 0 0 0 1 1 1 2 2 1 1 0 0 1 1 1 1 1 0 0 0 0 0 0 0 0 0 0 0 0 0 0 0 0 0 0
0 0 0 0 0 0 0 0 0 0 0 0 1 1 1 1 1 0 0 0 0 0 0 0 0 0 0 0 0 0 0 0 0 0 0 0 0 0 0 0 0 0 0
0 0 0 0 0 0 0 0 0 0 0 0 0 0 1 1 1 0 0 0 0 0 0 0 0 0 0 0 0 0 0 0 0 0 0 0 0 0 0 0 0 0 0
0 0 0 0 0 0 0 0 0 0 0 0 0 0 1 1 1 0 0 0 0 0 0 0 0 0 0 0 0 0 0 0 0 0 0 0 0 0 0 0 0 0 0
0 0 0 0 0 0 0 0 0 0 0 0 0 0 0 0 1 0 0 0 0 0 0 0 0 0 0 0 0 0 0 0 0 0 0 0 0 0 0 0 0 0 0
Wind_Speed
4 4 3 3 3 2 3 3 3 3 4 4 4 4 4 5 4 4 3 8 11 12 13 13 13 12 12 11 11 11 11 11 10 10 10 10 9 9 9 9 8 8 7
5 5 4 4 4 4 4 4 4 4 4 3 4 5 5 5 5 5 5 6 11 13 14 15 15 15 14 14 13 13 13 13 12 12 12 11 11 11 11 11 11 10 10
6 5 5 5 5 4 4 4 4 3 4 4 5 5 5 5 5 6 6 5 6 10 14 16 16 16 16 16 15 15 15 14 14 14 13 13 13 13 13 13 13 12 12
8 6 5 6 5 4 4 4 4 4 4 4 4 5 4 5 7 7 6 6 6 6 9 15 17 17 18 18 18 17 17 16 16 15 15 15 15 15 15 15 14 14 14
9 8 7 6 5 5 5 5 5 4 5 5 5 5 5 6 7 7 8 8 8 7 6 10 14 15 18 19 19 19 18 18 17 16 16 15 16 16 16 16 16 16 15
10 9 7 7 6 5 6 6 6 6 5 4 5 6 6 7 7 7 9 8 7 8 7 7 7 9 15 18 19 19 19 19 18 17 16 16 16 16 16 16 17 17 16
10 10 7 7 7 7 8 8 6 6 6 3 3 5 6 7 8 8 7 6 7 7 6 7 6 5 6 14 18 19 20 20 19 18 17 16 16 17 17 17 18 18 18
10 9 10 8 8 7 8 8 8 5 4 5 4 2 5 4 4 5 5 5 6 4 5 6 6 7 6 5 10 17 19 20 19 19 18 17 17 16 16 17 18 18 18
10 9 10 9 8 9 8 9 9 9 7 5 7 5 4 4 4 3 4 4 4 4 5 5 7 7 7 7 7 13 17 19 19 18 18 17 17 17 17 16 16 16 17
9 10 10 10 9 8 9 9 9 9 8 7 5 8 7 4 3 5 3 3 4 5 5 5 6 7 7 7 8 12 14 16 16 17 17 17 17 17 17 17 16 16 16
8 9 9 9 10 9 10 9 9 10 9 9 7 5 8 8 8 7 8 5 3 4 5 6 6 6 7 7 7 10 14 15 15 15 16 16 16 17 17 17 16 16 16
5 8 8 9 9 9 10 10 10 11 10 10 9 7 6 6 7 8 10 8 7 5 6 6 6 7 6 7 9 12 14 14 14 14 15 15 15 16 16 17 16 15 15
5 7 8 8 9 9 9 9 9 10 11 11 11 9 9 9 6 6 9 8 7 5 4 5 6 6 6 6 6 12 12 13 14 13 13 13 14 14 15 15 15 15 14
5 5 6 7 8 8 8 9 8 9 8 10 11 11 9 8 8 8 7 7 9 6 5 6 4 6 6 5 8 10 7 11 12 13 12 12 13 13 13 14 14 14 14
3 3 4 5 6 7 8 8 8 9 8 9 10 10 10 8 8 8 8 8 8 10 9 5 4 4 5 5 7 6 6 9 11 11 11 11 12 12 12 13 13 13 13
2 3 3 4 5 5 6 7 7 7 8 8 7 9 10 8 7 7 8 8 8 9 10 4 4 4 4 4 6 6 6 8 9 9 10 11 11 11 11 12 12 12 12
3 3 3 3 4 4 5 5 6 6 8 8 7 8 9 8 7 6 6 7 7 8 11 7 4 4 5 5 4 4 4 5 5 8 9 10 10 10 11 11 11 11 11
3 3 3 3 3 4 4 4 6 6 7 7 7 7 8 6 8 7 6 7 7 7 9 11 5 4 6 5 4 4 4 3 4 6 9 9 10 10 10 10 10 10 10
4 3 3 3 4 4 4 4 5 5 6 6 6 6 7 6 7 6 6 7 6 6 7 8 8 4 4 2 3 3 3 3 3 4 6 8 9 9 9 9 9 9 9
4 4 4 4 4 4 4 5 5 5 5 6 5 6 6 6 7 7 6 7 6 6 6 7 7 5 3 2 1 3 4 3 3 2 4 5 6 8 8 9 9 8 9
4 4 4 4 5 4 4 6 5 5 5 6 5 5 5 6 7 6 5 5 5 5 5 5 6 5 3 2 3 3 5 4 3 2 3 3 3 3 4 6 7 8 8
4 4 4 5 5 5 8 9 7 6 5 6 6 6 5 5 6 7 7 7 7 7 7 6 6 6 6 4 3 3 3 3 5 2 3 4 2 4 4 4 6 8 8
4 4 4 4 5 6 10 9 9 6 5 5 6 5 5 4 5 6 7 7 7 8 9 8 8 8 6 5 4 4 4 5 6 3 2 4 2 4 4 5 8 8 9
4 4 4 5 5 7 10 10 10 6 5 5 5 5 6 5 5 6 6 6 6 6 7 6 7 7 6 5 5 6 6 5 3 2 2 4 3 3 2 3 7 8 9
4 4 4 4 5 6 9 10 10 5 4 5 5 5 5 5 7 8 6 6 7 6 5 6 8 8 8 8 5 3 2 3 5 4 2 3 3 2 2 3 4 7 8
4 4 4 4 4 5 9 11 10 4 5 5 4 4 5 6 8 8 6 6 7 7 5 5 6 6 6 5 6 6 5 4 4 4 3 3 2 1 2 2 2 2 4
Wind_Direction
199 202 208 209 212 209 213 221 231 245 255 261 260 259 262 256 252 247 253 259 264 267 270 271 269 266 262 259 259 256 253 255 250 246 247 248 247 247 248 247 247 244 241
201 203 210 213 216 212 213 217 225 236 248 254 263 260 258 258 253 250 246 255 257 261 264 268 270 269 267 264 260 258 257 254 252 247 245 246 245 246 246 245 246 244 241
204 204 209 215 217 211 213 221 233 237 249 253 259 259 257 254 252 251 248 245 250 255 258 262 266 268 268 267 265 261 259 257 254 251 246 244 244 244 244 244 244 243 241
204 204 211 219 211 203 206 216 223 233 243 246 256 259 254 254 253 250 247 244 241 245 251 256 260 262 265 266 266 265 263 261 257 253 249 246 245 244 243 242 241 240 239
208 208 215 216 203 205 211 217 219 217 237 245 251 256 252 252 254 252 250 246 240 238 238 250 251 254 259 264 266 266 266 264 260 257 253 249 247 246 245 242 240 239 237
208 210 217 213 202 210 217 217 224 220 229 240 258 264 257 252 250 248 250 249 242 238 237 239 244 250 253 259 263 265 266 266 264 262 258 253 250 249 246 244 241 238 236
208 211 217 212 208 217 222 217 219 227 232 208 249 277 265 247 248 249 247 247 246 241 235 235 237 239 251 256 260 262 264 265 265 264 263 258 255 253 250 246 242 240 236
210 212 217 216 211 219 223 219 213 219 220 187 202 265 296 303 272 248 244 244 248 241 237 235 234 236 237 240 251 257 260 263 265 264 263 260 259 258 256 251 248 244 240
214 215 218 219 217 216 225 221 215 219 231 209 199 208 243 265 304 280 246 241 243 238 240 238 237 238 237 237 245 253 254 256 260 263 263 263 262 260 259 258 255 251 247
217 218 221 221 223 223 227 224 217 218 224 229 209 215 226 222 252 293 273 246 239 240 242 239 240 240 236 237 240 242 245 249 253 257 259 261 261 262 263 262 260 257 253
217 220 222 224 227 228 230 227 221 220 221 229 221 208 223 230 229 251 276 271 251 234 233 234 237 241 238 236 241 243 242 245 247 249 252 254 257 261 263 263 263 261 257
222 224 224 227 231 232 233 231 228 226 226 228 229 221 213 217 220 230 253 266 269 250 231 230 234 239 239 236 240 245 244 246 247 247 246 248 252 255 259 261 262 264 261
232 231 225 231 234 236 238 235 232 232 229 230 231 231 229 232 226 228 246 261 266 265 240 232 229 232 236 234 242 244 244 244 246 246 245 245 247 250 253 256 258 260 260
245 245 233 236 237 238 240 238 237 236 233 233 235 234 236 236 231 228 234 251 269 267 245 242 228 226 230 231 239 242 246 242 241 242 243 243 244 246 249 252 254 255 257
282 270 253 249 247 243 243 242 242 240 236 236 238 237 238 239 234 233 233 233 251 273 272 240 233 226 226 229 238 238 237 241 239 239 240 240 241 243 246 248 250 252 254
304 295 278 264 259 255 251 247 249 247 243 242 240 241 241 240 238 235 233 234 235 252 270 247 231 231 221 230 239 235 237 243 245 243 240 238 237 239 242 245 247 248 250
320 308 296 286 279 273 265 256 256 257 251 251 246 245 247 244 244 243 239 238 239 241 262 268 233 232 221 231 240 234 238 241 246 242 240 238 237 237 240 242 243 243 244
337 327 317 309 302 296 288 276 271 268 263 261 259 254 256 253 249 247 245 244 243 238 250 267 263 238 233 229 231 232 236 238 244 247 241 239 238 238 239 240 240 240 240
345 343 342 332 325 318 311 300 289 283 278 272 268 263 263 259 259 257 253 252 251 249 245 258 267 251 239 229 244 253 247 252 249 250 247 244 242 241 238 238 237 239 236
352 349 348 338 330 325 324 320 311 300 293 289 281 273 271 267 268 268 263 260 261 259 256 259 266 264 250 234 220 247 265 250 254 252 245 243 245 243 242 239 236 235 234
358 349 348 344 340 335 340 333 318 307 300 297 294 287 283 281 279 277 276 275 271 266 263 263 267 271 261 245 239 233 251 264 263 223 242 246 245 249 244 241 235 233 234
358 358 354 348 345 346 349 347 336 317 311 305 302 299 295 285 290 284 276 271 266 266 269 264 265 265 267 256 248 239 245 259 268 221 217 251 214 243 245 238 233 226 227
353 354 350 347 341 342 350 349 346 325 315 312 310 309 307 308 299 295 291 285 273 264 259 262 267 267 269 262 256 259 249 250 255 233 204 248 225 246 242 240 232 226 224
347 342 341 340 338 344 351 348 343 328 321 321 317 312 308 310 313 307 301 295 287 281 271 263 266 272 271 268 252 251 254 263 273 255 201 246 236 243 251 246 238 230 225
342 339 337 338 336 337 349 349 348 327 323 321 319 320 315 311 318 318 307 299 297 294 297 281 278 281 280 272 258 255 246 251 269 260 212 231 241 246 248 248 248 236 227
338 337 340 339 336 336 351 355 353 335 327 324 325 322 318 320 322 322 307 298 295 299 306 308 301 296 290 278 253 235 228 240 258 259 215 206 222 201 262 250 245 245 232